Location: Coat Anguy
(48.6682°N, 4.3186°W)
Time: 12:05:43
(UTC+00:00)

Daily predictions for brighter satellites

Satellite Brightness Start Highest point End
(mag) Time Altitude Azimuth Time Altitude Azimuth Time Altitude Azimuth
NOSS 3-4 (A) 4.3 20:29:22 10° WSW 20:35:09 56° NW 20:41:28 10° NE
NOSS 3-4 (C) 4.3 20:29:28 10° WSW 20:35:15 56° NW 20:41:34 10° NE
BREEZE-M DEB (TANK) 2.1 20:33:22 10° WNW 20:35:59 72° SSW 20:41:48 10° ESE
Helios 1A Rocket 4.2 20:32:29 10° S 20:36:18 41° W 20:40:12 10° NNW
SPOT 1/Viking Rocket 4.1 20:32:25 10° SE 20:37:21 46° ENE 20:42:20 10° N
Cosmos 1697 Rocket 3.8 20:33:00 10° NW 20:38:19 42° WSW 20:43:36 10° S
Cosmos 1076 Rocket 3.7 20:34:19 10° S 20:38:34 56° E 20:42:51 10° NNE
ATLAS 5 CENTAUR R/B 4.3 20:36:29 10° NNW 20:39:41 17° NNE 20:43:13 10° NE
SAR-Lupe-4 3.9 20:36:48 10° N 20:40:23 72° WNW 20:43:57 10° SSW
OBJECT-B 3.2 20:39:04 10° SSW 20:41:40 23° W 20:44:18 10° NW
ATLAS 2AS CENTAUR R/B 3.2 20:35:56 10° SW 20:43:53 83° NW 20:51:38 10° NE
Cosmos 773 Rocket 4.2 20:41:47 10° SSW 20:46:59 81° WNW 20:52:12 10° NNE
ATLAS 3B R/B 3.0 20:41:54 10° NW 20:49:00 80° SW 20:56:22 10° SSE
Cosmos 1833 Rocket 3.8 20:43:35 10° SW 20:49:03 51° NW 20:54:35 10° NNE
Terra 3.4 20:48:25 10° ESE 20:51:59 21° ENE 20:55:33 10° NNE
Cosmos 1842 Rocket 4.4 20:47:49 10° NNW 20:52:12 54° W 20:56:34 10° S
SPOT 5 3.9 20:50:53 10° ESE 20:54:30 27° ENE 20:58:12 10° N
Cosmos 2082 Rocket 2.3 20:50:01 10° SSW 20:55:39 83° WNW 21:01:23 10° NNE
Cosmos 1092 Rocket 4.3 20:50:40 10° SSE 20:56:37 49° E 21:02:40 10° NNE
Cosmos 1633 2.6 20:54:16 10° SSW 20:57:52 81° W 21:01:31 10° N
Cosmos 2278 4.0 20:52:42 10° NNW 20:58:19 67° WSW 21:03:56 10° SSE
BREEZE-M DEB (TANK) 1.7 20:57:57 10° WSW 21:01:03 66° SSE 21:02:54 10° E
Cosmos 332 Rocket 3.8 20:59:27 10° NNW 21:04:22 77° ENE 21:08:58 12° SSE
ERS-1 Rocket 3.8 21:00:35 11° SE 21:04:53 37° ENE 21:09:30 10° N
Cosmos 2360 Rocket 3.4 21:00:14 10° NNW 21:05:13 31° NE 21:10:08 10° ESE
Cosmos 1606 3.8 21:01:51 10° NNW 21:05:27 43° W 21:09:03 10° SSW
Cosmos 158 Rocket 4.0 21:02:22 10° S 21:07:25 60° ESE 21:12:38 10° NNE
Cosmos 2026 Rocket 4.3 21:03:32 10° SSE 21:09:35 49° E 21:15:35 10° NNE
GP-B 3.5 21:08:11 10° NNE 21:12:29 45° E 21:16:13 13° SSE
ISS -3.0 21:10:27 10° WNW 21:13:40 41° SSW 21:15:56 17° SSE
Cosmos 2333 Rocket 3.9 21:11:08 10° N 21:15:28 22° NE 21:19:48 10° E
Landsat 7 4.4 21:12:06 10° S 21:16:47 57° W 21:21:29 10° NNW
Nadezhda 4 Rocket 4.2 21:10:55 10° SSW 21:17:05 77° W 21:23:22 10° N
IGS 5A 4.5 21:13:41 10° S 21:17:39 44° W 21:21:39 10° NNW
Meteor 1-26 Rocket 4.4 21:12:38 10° N 21:18:38 73° ENE 21:23:55 13° SSE
Spot 2 Rocket 3.6 21:14:48 13° SSE 21:19:23 68° ENE 21:24:29 10° N
SPOT 3 Rocket 4.0 21:15:01 10° S 21:20:12 63° WSW 21:25:24 10° NNW
Cosmos 1812 3.9 21:17:32 10° NNE 21:20:54 28° ENE 21:23:03 17° ESE
Cosmos 1680 Rocket 4.0 21:17:52 10° S 21:22:43 38° ESE 21:27:34 10° NE
CZ-2C R/B 3.6 21:20:10 10° NNE 21:24:43 74° ESE 21:29:10 10° S
Cosmos 1980 Rocket 3.5 21:21:33 10° NW 21:26:35 34° WSW 21:31:35 10° S
RESURS DK-1 4.0 21:24:11 10° WSW 21:28:05 38° NW 21:32:00 10° NNE
Okean 3 Rocket 4.2 21:24:58 16° SSE 21:28:05 39° E 21:32:18 10° NNE
USA 245 3.8 21:25:06 11° S 21:30:02 78° WSW 21:34:11 10° NNW
USA 234 4.2 21:25:31 10° E 21:31:44 47° NNE 21:37:57 10° WNW
Cosmos 1933 3.8 21:32:48 10° NNW 21:36:49 60° W 21:40:22 13° S
Cosmos 2322 Rocket 2.2 21:32:07 10° NNW 21:37:47 74° ENE 21:41:47 20° SE
Cosmos 304 Rocket 4.2 21:33:52 10° NNW 21:38:35 58° WSW 21:42:24 15° S
Cosmos 1428 Rocket 4.4 21:32:47 10° S 21:38:55 80° E 21:45:04 10° N
ERS-2 4.3 21:35:58 10° N 21:39:05 27° WNW 21:42:12 10° SW
Resurs 01 Rocket 3.4 21:37:41 10° SSW 21:41:32 29° W 21:45:25 10° NW
Cosmos 2151 3.7 21:39:07 10° SSW 21:43:15 53° WNW 21:47:28 10° N
CARTOSAT-1 3.9 21:46:36 16° S 21:49:55 63° WSW 21:54:14 10° NNW
Cosmos 2084 3.9 21:48:52 21° S 21:50:56 35° ESE 21:54:45 10° ENE
Cosmos 1553 Rocket 4.0 21:45:19 10° N 21:51:24 70° E 21:55:36 21° SSE
Gbstr 26 Del rocket 3.1 21:50:07 10° WNW 21:53:45 48° SSW 21:55:26 28° SSE
Meteor 2-3 Rocket 4.1 21:48:37 10° SSW 21:54:15 68° WNW 21:59:59 10° N
Cosmos 1862 3.6 21:57:03 29° SSE 21:58:42 47° E 22:02:33 10° NNE
Cosmos 2219 Rocket 3.4 21:54:09 10° NNW 21:59:11 32° NE 22:02:58 16° ESE
Cosmos 1624 Rocket 4.0 21:54:44 10° NNW 21:59:58 75° ENE 22:02:57 26° SSE
Cosmos 1782 3.5 21:59:06 10° NNW 22:03:01 51° W 22:05:39 19° SSW
Cosmos 1515 Rocket 3.8 22:00:24 10° N 22:04:47 55° ENE 22:06:43 30° SE
NOSS 2-1 (E) 3.5 22:05:22 34° ESE 22:05:22 34° ESE 22:08:13 10° NE
H-2A R/B 4.0 22:02:00 10° NNE 22:05:58 39° E 22:07:14 31° SE
SL-16 R/B 2.6 22:00:43 10° NW 22:06:15 56° WSW 22:09:55 21° S
ARIANE 5 R/B 3.3 22:04:24 19° S 22:07:29 52° W 22:11:50 10° NNW
NOSS 3-1 (C) 4.3 22:00:52 10° NW 22:08:03 63° NE 22:14:29 18° ESE
Cosmos 1271 Rocket 4.3 22:05:30 10° NNW 22:09:04 32° W 22:12:03 13° SSW
COSMOS 2455 3.8 22:09:10 24° SE 22:10:28 26° ESE 22:15:18 10° NE
Cosmos 2237 4.2 22:04:45 10° NNW 22:10:30 84° WSW 22:13:45 27° SSE
USA 276 3.1 22:07:51 10° W 22:10:42 30° SSW 22:10:46 30° SSW
Cosmos 1420 Rocket 4.2 22:05:38 10° NNW 22:10:57 64° ENE 22:13:43 28° SE
COSMOS 2428 3.8 22:08:44 10° NNW 22:13:56 34° NE 22:17:35 17° ESE
Meteor 2-6 Rocket 4.1 22:10:21 10° NNW 22:15:48 87° W 22:18:52 27° S
Cosmos 1655 Rocket 4.2 22:12:44 25° SSE 22:16:26 56° E 22:22:41 10° NNE
Cosmos 1151 Rocket 3.8 22:13:39 10° NNW 22:17:51 49° W 22:20:30 21° SSW
Cosmos 1766 Rocket 3.9 22:14:49 16° SSW 22:18:13 64° W 22:22:35 10° N
Cosmos 1417 Rocket 4.5 22:12:18 10° N 22:18:41 90° ESE 22:22:33 25° S
S3M 4.0 22:15:17 10° N 22:21:43 79° E 22:25:25 27° SSE
USA 229 DEB 4.5 22:15:10 10° NW 22:22:11 52° NE 22:28:17 16° ESE
USA 229 4.5 22:15:15 10° NW 22:22:17 52° NE 22:28:24 16° ESE
Cosmos 1328 Rocket 4.0 22:17:58 10° NNW 22:22:21 58° W 22:24:43 26° SSW
ATLAS 5 CENTAUR R/B 3.3 22:20:49 10° NNW 22:25:42 37° NE 22:30:39 13° E
Cosmos 1174 3.2 22:23:09 10° NNW 22:26:09 61° NE 22:26:29 56° E
Terra 2.2 22:26:49 26° S 22:29:21 57° W 22:34:04 10° NNW
Cosmos 1452 Rocket 4.0 22:25:19 10° NNW 22:30:26 49° ENE 22:32:49 29° ESE
COSMOS 2487 4.2 22:31:49 19° ENE 22:31:49 19° ENE 22:33:31 10° NE
SPOT 5 3.8 22:30:02 20° SSW 22:32:29 36° W 22:36:33 10° NNW
ALOS 2 4.3 22:33:57 19° E 22:35:33 23° ENE 22:39:01 10° N
USA 267 3.4 22:33:05 10° ENE 22:39:26 50° SE 22:45:44 10° SSW
Cosmos 2056 Rocket 4.0 22:34:49 10° NNW 22:40:03 54° WSW 22:42:28 30° S
SL-27 R/B 2.5 22:39:50 43° SSW 22:40:55 79° WNW 22:44:32 10° NNE
Meteor 1-27 Rocket 3.7 22:36:05 10° N 22:41:45 75° ENE 22:44:14 35° SSE
NOSS 3-1 (A) 4.3 22:35:32 10° NW 22:42:45 64° NE 22:48:48 20° ESE
ERS-1 Rocket 4.3 22:40:34 17° SSW 22:43:43 33° W 22:48:15 10° NNW
NOSS 2-1 (C) 3.1 22:48:04 32° WSW 22:49:25 68° NW 22:52:50 10° NE
Cosmos 2360 Rocket 2.5 22:44:02 10° NW 22:49:32 55° WSW 22:51:53 33° S
Cosmos 1805 Rocket 4.0 22:49:13 41° ESE 22:49:56 45° E 22:54:11 10° NNE
IRIDIUM 104 4.3 22:45:14 10° N 22:50:28 70° E 22:52:18 40° SSE
Cosmos 1812 4.5 22:53:22 10° NNW 22:56:34 25° W 22:58:07 19° SW
NOSS 2-1 (D) 3.4 22:55:30 26° WSW 22:57:07 57° NW 23:00:32 10° NE
IRIDIUM 114 4.2 22:54:22 10° N 22:59:37 83° E 23:01:25 42° S
Cosmos 1833 4.2 22:56:03 22° SSW 23:00:00 86° WNW 23:05:49 10° NNE
Cosmos 2333 Rocket 2.1 22:54:49 10° NNW 23:00:31 88° WSW 23:02:38 41° SSE
Cosmos 1500 Rocket 3.5 22:59:40 44° SSW 23:01:01 81° W 23:05:29 10° N
IRIDIUM 103 4.3 23:03:31 10° N 23:08:46 83° W 23:10:34 43° S
Cosmos 972 Rocket 3.9 23:07:27 42° S 23:09:14 74° ESE 23:14:16 10° NNE
COBE Rocket 3.7 23:09:07 51° S 23:10:18 86° W 23:15:02 10° NNW
Cosmos 2322 3.7 23:05:01 10° NNW 23:10:45 79° WSW 23:12:44 43° SSE
Cosmos 292 Rocket 4.4 23:06:21 10° NW 23:10:53 44° WSW 23:12:09 36° SW
NOSS 0 Rocket 4.4 23:06:45 10° NNW 23:12:53 55° NE 23:16:01 28° ESE
USA 234 3.3 23:10:02 23° ESE 23:14:24 84° NNE 23:20:59 10° NW
Cosmos 2297 Rocket 3.8 23:17:11 19° ESE 23:17:25 19° E 23:21:14 10° ENE
Lacrosse 5 3.9 23:21:58 14° E 23:21:58 14° E 23:23:08 10° E
Cosmos 1743 Rocket 4.1 23:19:29 35° SW 23:21:01 53° WNW 23:25:24 10° N
Cosmos 2237 Rocket 3.2 23:15:41 10° NNW 23:21:03 40° NE 23:24:02 23° ESE
Cosmos 2322 Rocket 4.0 23:17:16 10° NW 23:21:12 20° W 23:23:35 15° SW
Cosmos 1500 4.2 23:26:57 35° E 23:26:57 35° E 23:30:11 10° NNE
Cosmos 2227 Rocket 3.9 23:28:53 17° ESE 23:29:09 17° E 23:32:45 10° ENE
Sich 1 2.9 23:28:46 66° S 23:29:23 88° E 23:33:45 10° N
Cosmos 2285 Rocket 4.0 23:24:03 10° NNW 23:30:20 70° WSW 23:32:33 42° S
Okean 1 3.3 23:27:33 10° N 23:31:35 66° E 23:31:46 65° E
Meteor 1-25 Rocket 4.1 23:30:16 46° S 23:31:58 79° E 23:37:33 10° NNE
Cosmos 1633 Rocket 3.4 23:33:07 47° ESE 23:33:19 47° E 23:37:31 10° NNE
Cosmos 494 Rocket 3.9 23:33:16 54° SSE 23:34:14 66° ESE 23:39:20 10° NNE
Cosmos 2315 Rocket 4.4 23:28:19 10° NNW 23:34:30 57° W 23:37:07 34° SSW
Cosmos 1666 Rocket 3.6 23:37:07 60° SE 23:37:29 63° E 23:41:54 10° NNE
Gblst 52 Del rocket 4.5 23:33:12 10° WNW 23:39:29 78° SSW 23:43:37 27° ESE
Cosmos 1048 Rocket 3.9 23:39:38 48° SSW 23:41:08 86° WNW 23:46:17 10° NNE
Cosmos 2228 Rocket 4.0 23:38:40 10° NNW 23:42:44 37° W 23:43:34 34° WSW
Cosmos 2219 Rocket 2.5 23:37:57 10° NW 23:43:23 52° WSW 23:44:40 43° SSW
Cosmos 489 Rocket 4.4 23:43:32 39° SSW 23:46:06 88° ESE 23:52:31 10° NNE
Meteor 1-19 Rocket 4.1 23:42:23 10° NNW 23:48:04 84° W 23:49:32 51° S
SL-16 R/B 3.9 23:43:19 10° NNW 23:48:08 27° NE 23:52:43 11° ESE
Cosmos 1602 3.9 23:52:57 63° W 23:53:04 63° WNW 23:56:54 10° N
Cosmos 1515 4.3 23:52:10 10° NNW 23:55:40 45° W 23:55:40 45° W
